�������l�o���
Date,Time,MP-1(��Sv/h),MP-2(��Sv/h),MP-3(��Sv/h),MP-4(��Sv/h),MP-5(��Sv/h),MP-6(��Sv/h),MP-7(��Sv/h),MP-8(��Sv/h),����,����(m/s),���J
2016/05/11,00:00,1.527,2.382,2.380,2.205,2.307,0.646,1.189,1.040,�k�k��,7.2,��
2016/05/11,00:10,1.527,2.383,2.382,2.205,2.304,0.646,1.185,1.042,�k�k��,7.3,�L
2016/05/11,00:20,1.527,2.385,2.385,2.207,2.304,0.648,1.189,1.040,�k�k��,7.3,��
2016/05/11,00:30,1.527,2.385,2.386,2.211,2.307,0.648,1.188,1.042,�k�k��,7.2,�L
2016/05/11,00:40,1.523,2.383,2.385,2.211,2.307,0.648,1.189,1.041,�k�k��,6.4,�L
2016/05/11,00:50,1.527,2.385,2.384,2.210,2.309,0.649,1.189,1.041,�k�k��,7.1,�L
2016/05/11,01:00,1.527,2.382,2.383,2.206,2.308,0.648,1.190,1.041,�k�k��,6.7,�L
2016/05/11,01:10,1.525,2.380,2.381,2.210,2.301,0.646,1.189,1.041,�k�k��,5.9,�L
2016/05/11,01:20,1.528,2.377,2.382,2.207,2.304,0.648,1.188,1.040,�k�k��,6.6,��
2016/05/11,01:30,1.530,2.383,2.385,2.210,2.305,0.647,1.189,1.041,�k�k��,6.0,��
2016/05/11,01:40,1.528,2.378,2.385,2.208,2.304,0.649,1.189,1.040,�k�k��,6.5,��
2016/05/11,01:50,1.527,2.383,2.385,2.206,2.311,0.648,1.187,1.044,�k�k��,5.9,�L
2016/05/11,02:00,1.525,2.383,2.385,2.212,2.309,0.649,1.192,1.043,�k�k��,5.5,�L
2016/05/11,02:10,1.530,2.382,2.388,2.211,2.312,0.648,1.191,1.042,�k�k��,5.4,�L
2016/05/11,02:20,1.527,2.385,2.384,2.210,2.311,0.649,1.189,1.042,�k�k��,5.4,�L
2016/05/11,02:30,1.528,2.387,2.385,2.210,2.309,0.647,1.188,1.040,�k�k��,4.9,�L
2016/05/11,02:40,1.528,2.387,2.387,2.212,2.309,0.647,1.188,1.041,�k�k��,4.0,��
2016/05/11,02:50,1.528,2.383,2.384,2.209,2.312,0.647,1.191,1.042,�k,3.1,�L
2016/05/11,03:00,1.525,2.383,2.383,2.207,2.303,0.648,1.190,1.041,�k�k��,2.0,�L
2016/05/11,03:10,1.527,2.380,2.377,2.209,2.304,0.647,1.189,1.039,�k,2.3,�L
2016/05/11,03:20,1.527,2.378,2.380,2.210,2.303,0.648,1.186,1.041,�k,3.0,�L
2016/05/11,03:30,1.523,2.380,2.379,2.207,2.301,0.647,1.188,1.039,�k,3.4,��
2016/05/11,03:40,1.522,2.377,2.377,2.206,2.303,0.648,1.190,1.042,�k,3.1,�L
2016/05/11,03:50,1.523,2.378,2.376,2.206,2.302,0.647,1.188,1.039,�k�k��,3.7,��
2016/05/11,04:00,1.525,2.380,2.380,2.208,2.305,0.647,1.189,1.040,�k,3.6,��
2016/05/11,04:10,1.527,2.382,2.381,2.208,2.306,0.648,1.188,1.041,�k�k��,3.1,��
2016/05/11,04:20,1.522,2.382,2.384,2.207,2.308,0.648,1.189,1.040,�k�k��,3.0,��
2016/05/11,04:30,1.523,2.383,2.383,2.210,2.310,0.647,1.189,1.041,�k�k��,2.0,��
2016/05/11,04:40,1.528,2.387,2.383,2.209,2.311,0.649,1.190,1.039,�k�k��,1.4,��
2016/05/11,04:50,1.527,2.388,2.386,2.209,2.313,0.648,1.191,1.038,�k�k��,0.9,�L
2016/05/11,05:00,1.528,2.385,2.383,2.208,2.312,0.647,1.191,1.040,�k�k��,1.2,�L
2016/05/11,05:10,1.527,2.382,2.383,2.209,2.310,0.648,1.192,1.040,�k�k��,0.6,�L
2016/05/11,05:20,1.525,2.382,2.383,2.206,2.312,0.649,1.189,1.041,�k�k��,0.8,�L
2016/05/11,05:30,1.527,2.387,2.382,2.210,2.311,0.648,1.191,1.041,��,0.6,��
2016/05/11,05:40,1.527,2.382,2.384,2.210,2.314,0.647,1.192,1.041,-,CALM,��
2016/05/11,05:50,1.525,2.385,2.389,2.210,2.314,0.645,1.191,1.041,-,CALM,�L
2016/05/11,06:00,1.525,2.383,2.383,2.208,2.306,0.647,1.188,1.040,���k��,0.9,�L
2016/05/11,06:10,1.527,2.382,2.384,2.205,2.304,0.648,1.189,1.039,-,CALM,�L
2016/05/11,06:20,1.525,2.382,2.383,2.206,2.304,0.647,1.187,1.039,���k��,0.6,�L
2016/05/11,06:30,1.528,2.383,2.380,2.206,2.305,0.649,1.187,1.038,�k��,0.6,�L
2016/05/11,06:40,1.523,2.378,2.376,2.201,2.303,0.647,1.187,1.038,���쓌,0.8,��
2016/05/11,06:50,1.522,2.377,2.379,2.202,2.300,0.646,1.185,1.038,��,0.8,��
2016/05/11,07:00,1.527,2.382,2.375,2.203,2.301,0.647,1.187,1.041,�k��,0.8,��
2016/05/11,07:10,1.523,2.378,2.379,2.203,2.303,0.647,1.188,1.040,��,0.9,�L
2016/05/11,07:20,1.525,2.382,2.380,2.201,2.300,0.648,1.188,1.039,�k�k��,1.2,�L
2016/05/11,07:30,1.523,2.380,2.381,2.203,2.303,0.646,1.188,1.039,�k��,1.1,��
2016/05/11,07:40,1.525,2.377,2.379,2.201,2.304,0.645,1.187,1.041,�k�k��,1.4,��
2016/05/11,07:50,1.523,2.378,2.380,2.202,2.307,0.647,1.188,1.040,�k��,1.2,�L
2016/05/11,08:00,1.523,2.378,2.376,2.201,2.298,0.646,1.184,1.037,-,CALM,�L
2016/05/11,08:10,1.523,2.372,2.372,2.199,2.295,0.644,1.186,1.040,-,CALM,�L
2016/05/11,08:20,1.520,2.373,2.376,2.196,2.296,0.646,1.188,1.039,�k��,1.4,�L
2016/05/11,08:30,1.522,2.373,2.375,2.197,2.299,0.646,1.187,1.039,�k�k��,1.7,��
2016/05/11,08:40,1.525,2.377,2.377,2.202,2.297,0.647,1.186,1.039,�k�k��,1.2,��
2016/05/11,08:50,1.522,2.375,2.376,2.198,2.298,0.646,1.187,1.039,���k��,1.2,��
2016/05/11,09:00,1.523,2.373,2.372,2.202,2.300,0.645,1.187,1.038,���k��,1.4,��
2016/05/11,09:10,1.522,2.378,2.376,2.202,2.304,0.644,1.188,1.038,���k��,2.0,�L
2016/05/11,09:20,1.523,2.383,2.377,2.198,2.302,0.648,1.188,1.039,�k��,1.7,��
2016/05/11,09:30,1.520,2.382,2.380,2.202,2.301,0.645,1.187,1.041,���k��,1.4,��
2016/05/11,09:40,1.525,2.383,2.379,2.200,2.304,0.646,1.187,1.040,��,1.4,��
2016/05/11,09:50,1.527,2.383,2.382,2.205,2.309,0.645,1.188,1.040,�k��,1.4,��
2016/05/11,10:00,1.522,2.387,2.384,2.206,2.310,0.646,1.186,1.039,��,1.9,��
2016/05/11,10:10,1.525,2.382,2.385,2.206,2.309,0.647,1.189,1.041,�k��,1.5,��
2016/05/11,10:20,1.525,2.383,2.388,2.206,2.310,0.648,1.188,1.040,�k�k��,2.5,�L
2016/05/11,10:30,1.527,2.388,2.384,2.207,2.309,0.647,1.187,1.041,�k��,2.8,�L
2016/05/11,10:40,1.527,2.387,2.386,2.208,2.312,0.647,1.189,1.038,�k�k��,2.8,��
2016/05/11,10:50,1.527,2.388,2.387,2.208,2.322,0.647,1.188,1.039,�k�k��,2.3,��
2016/05/11,11:00,1.530,2.388,2.387,2.208,2.313,0.647,1.190,1.039,�k�k��,2.0,�L
2016/05/11,11:10,1.530,2.392,2.386,2.207,2.314,0.649,1.190,1.036,�k,2.3,�L
2016/05/11,11:20,1.525,2.387,2.381,2.209,2.316,0.648,1.193,1.040,�k,2.0,�L
2016/05/11,11:30,1.527,2.390,2.384,2.207,2.311,0.648,1.190,1.039,�k�k��,1.7,�L
2016/05/11,11:40,1.530,2.388,2.384,2.207,2.315,0.649,1.190,1.040,�k,2.0,�L
2016/05/11,11:50,1.532,2.387,2.387,2.208,2.315,0.648,1.188,1.040,�k�k��,1.7,��
2016/05/11,12:00,1.528,2.390,2.389,2.205,2.317,0.648,1.190,1.038,�k,1.7,��
2016/05/11,12:10,1.527,2.387,2.390,2.210,2.315,0.649,1.192,1.041,�k�k��,2.2,��
2016/05/11,12:20,1.530,2.387,2.392,2.208,2.314,0.646,1.190,1.042,�k,1.9,��
2016/05/11,12:30,1.532,2.392,2.390,2.209,2.315,0.650,1.190,1.042,�k,2.2,��
2016/05/11,12:40,1.532,2.392,2.394,2.209,2.319,0.648,1.191,1.042,�k,2.6,��
2016/05/11,12:50,1.530,2.388,2.392,2.212,2.319,0.649,1.190,1.043,�k,3.6,��
2016/05/11,13:00,1.533,2.392,2.394,2.211,2.323,0.646,1.190,1.043,�k,3.8,��
2016/05/11,13:10,1.530,2.393,2.393,2.212,2.326,0.648,1.192,1.041,�k,3.3,��
2016/05/11,13:20,1.527,2.392,2.395,2.213,2.326,0.649,1.189,1.043,�k�k��,2.5,��
2016/05/11,13:30,1.533,2.393,2.393,2.214,2.323,0.650,1.191,1.042,�k�k��,3.2,��
2016/05/11,13:40,1.530,2.395,2.396,2.209,2.320,0.649,1.194,1.042,�k,0.6,��
2016/05/11,13:50,1.530,2.395,2.398,2.211,2.322,0.650,1.194,1.040,��,0.8,��
2016/05/11,14:00,1.530,2.393,2.395,2.212,2.330,0.646,1.193,1.040,���k��,1.1,��
2016/05/11,14:10,1.532,2.393,2.400,2.216,2.327,0.648,1.189,1.043,���k��,1.4,�L
2016/05/11,14:20,1.533,2.392,2.396,2.212,2.320,0.650,1.191,1.040,���k��,1.2,�L
2016/05/11,14:30,1.530,2.387,2.392,2.210,2.320,0.649,1.192,1.039,-,CALM,�L
2016/05/11,14:40,1.535,2.388,2.391,2.212,2.320,0.650,1.190,1.040,�k�k��,1.5,�L
2016/05/11,14:50,1.535,2.392,2.390,2.211,2.320,0.647,1.191,1.039,�k�k��,1.1,�L
2016/05/11,15:00,1.532,2.390,2.390,2.210,2.320,0.647,1.192,1.038,�k,0.6,��
2016/05/11,15:10,1.532,2.387,2.393,2.215,2.320,0.648,1.191,1.039,��,0.6,��
2016/05/11,15:20,1.530,2.390,2.392,2.215,2.320,0.650,1.193,1.040,��쓌,0.6,��
2016/05/11,15:30,1.530,2.392,2.394,2.214,2.322,0.650,1.194,1.041,-,CALM,��
2016/05/11,15:40,1.530,2.392,2.392,2.213,2.322,0.649,1.193,1.043,�k��,1.2,��
2016/05/11,15:50,1.530,2.392,2.393,2.213,2.323,0.649,1.192,1.042,�k,1.4,��
2016/05/11,16:00,1.532,2.393,2.392,2.215,2.325,0.649,1.191,1.039,�k�k��,1.2,��
2016/05/11,16:10,1.530,2.397,2.393,2.213,2.329,0.651,1.192,1.042,�k�k��,1.4,�L
2016/05/11,16:20,1.528,2.397,2.397,2.214,2.326,0.651,1.191,1.044,�k,1.4,�L
2016/05/11,16:30,1.532,2.395,2.391,2.212,2.326,0.650,1.190,1.041,�k�k��,2.0,�L
2016/05/11,16:40,1.532,2.395,2.394,2.214,2.325,0.651,1.192,1.043,�k�k��,2.0,�L
2016/05/11,16:50,1.530,2.395,2.391,2.212,2.326,0.649,1.191,1.043,�k,1.4,��
2016/05/11,17:00,1.532,2.393,2.392,2.212,2.330,0.650,1.191,1.043,�k�k��,0.9,�L
2016/05/11,17:10,1.532,2.393,2.396,2.216,2.330,0.650,1.195,1.044,�k,2.0,�L
2016/05/11,17:20,1.532,2.393,2.393,2.214,2.329,0.651,1.193,1.042,�k�k��,2.2,��
2016/05/11,17:30,1.532,2.397,2.395,2.214,2.326,0.650,1.191,1.043,�k�k��,2.3,��
2016/05/11,17:40,1.530,2.393,2.397,2.213,2.330,0.650,1.194,1.041,�k�k��,3.5,��
2016/05/11,17:50,1.530,2.393,2.395,2.216,2.327,0.650,1.196,1.043,�k�k��,2.9,��
2016/05/11,18:00,1.530,2.397,2.398,2.216,2.328,0.650,1.192,1.042,�k�k��,1.1,��
2016/05/11,18:10,1.530,2.398,2.396,2.215,2.331,0.651,1.195,1.041,�k�k��,1.4,��
2016/05/11,18:20,1.530,2.395,2.398,2.215,2.331,0.650,1.194,1.042,�k�k��,0.8,��
2016/05/11,18:30,1.530,2.395,2.400,2.214,2.330,0.650,1.195,1.040,�k�k��,2.3,��
2016/05/11,18:40,1.533,2.395,2.400,2.218,2.329,0.651,1.194,1.041,�k�k��,3.6,��
2016/05/11,18:50,1.533,2.400,2.397,2.216,2.333,0.649,1.192,1.041,�k�k��,3.0,��
2016/05/11,19:00,1.533,2.395,2.398,2.219,2.332,0.652,1.196,1.041,�k�k��,3.1,��
2016/05/11,19:10,1.533,2.398,2.403,2.216,2.335,0.650,1.195,1.044,�k��,4.5,��
2016/05/11,19:20,1.532,2.397,2.396,2.215,2.333,0.650,1.191,1.044,�k��,3.8,��
2016/05/11,19:30,1.532,2.398,2.397,2.217,2.334,0.650,1.195,1.043,��,3.0,��
2016/05/11,19:40,1.533,2.397,2.402,2.217,2.332,0.651,1.193,1.044,�k��,0.6,��
2016/05/11,19:50,1.532,2.392,2.398,2.214,2.334,0.649,1.195,1.042,���k��,2.0,��
2016/05/11,20:00,1.532,2.393,2.401,2.219,2.335,0.652,1.196,1.043,��,3.3,��
2016/05/11,20:10,1.532,2.397,2.401,2.218,2.334,0.650,1.196,1.042,���k��,3.9,��
2016/05/11,20:20,1.532,2.398,2.404,2.218,2.333,0.651,1.196,1.044,���k��,7.5,��
2016/05/11,20:30,1.533,2.397,2.404,2.221,2.339,0.653,1.197,1.043,���k��,8.7,��
2016/05/11,20:40,1.530,2.400,2.401,2.221,2.335,0.652,1.197,1.045,���k��,7.6,��
2016/05/11,20:50,1.537,2.400,2.402,2.223,2.336,0.651,1.197,1.043,���k��,7.3,��
2016/05/11,21:00,1.538,2.403,2.402,2.223,2.338,0.651,1.196,1.042,���k��,6.7,��
2016/05/11,21:10,1.537,2.402,2.404,2.226,2.340,0.655,1.196,1.044,���k��,8.3,��
2016/05/11,21:20,1.537,2.402,2.405,2.225,2.335,0.652,1.196,1.046,���k��,9.3,��
2016/05/11,21:30,1.538,2.407,2.409,2.228,2.337,0.653,1.195,1.044,���k��,11.6,��
2016/05/11,21:40,1.540,2.408,2.410,2.229,2.343,0.652,1.196,1.046,���k��,12.0,��
2016/05/11,21:50,1.537,2.407,2.409,2.235,2.336,0.653,1.197,1.044,���k��,10.7,��
2016/05/11,22:00,1.543,2.408,2.414,2.232,2.343,0.652,1.197,1.045,���k��,11.1,��
2016/05/11,22:10,1.543,2.407,2.414,2.234,2.339,0.652,1.197,1.043,���k��,6.8,��
2016/05/11,22:20,1.542,2.407,2.413,2.233,2.344,0.653,1.196,1.045,��,4.9,��
2016/05/11,22:30,1.542,2.410,2.412,2.236,2.344,0.652,1.197,1.045,���k��,5.5,��
2016/05/11,22:40,1.540,2.410,2.417,2.235,2.347,0.654,1.198,1.047,���k��,7.4,��
2016/05/11,22:50,1.542,2.408,2.414,2.234,2.344,0.653,1.198,1.045,���k��,8.7,��
2016/05/11,23:00,1.543,2.410,2.415,2.234,2.347,0.655,1.201,1.045,���k��,8.5,��
2016/05/11,23:10,1.540,2.412,2.416,2.235,2.348,0.655,1.199,1.046,���k��,8.9,��
2016/05/11,23:20,1.542,2.415,2.416,2.235,2.347,0.655,1.198,1.047,���k��,8.9,��
2016/05/11,23:30,1.545,2.415,2.415,2.238,2.347,0.656,1.197,1.045,���k��,10.0,��
2016/05/11,23:40,1.545,2.415,2.419,2.235,2.347,0.655,1.198,1.047,���k��,10.1,��
2016/05/11,23:50,1.547,2.415,2.419,2.240,2.347,0.654,1.199,1.045,���k��,9.8,��
